| time (UTC) | temp C | wind direction | speed KPH | gust KPH | rain 1hr cm | rain 24hr cm | rain mn cm | humidity % | barometer mb |
| 20260507084507 | 13 | 339 | 0.0 | 3.2 | 0.00 | 0.00 | 0.00 | 83 | 1017.1 |
| 20260507083003 | 13 | 346 | 0.0 | 3.2 | 0.00 | 0.00 | 0.00 | 83 | 1017.2 |
| 20260507081504 | 13 | 326 | 0.0 | 3.2 | 0.00 | 0.00 | 0.00 | 83 | 1017.3 |
| 20260507080010 | 14 | 315 | 0.0 | 3.2 | 0.00 | 0.00 | 0.00 | 81 | 1017.3 |
| 20260507074506 | 14 | 30 | 0.0 | 3.2 | 0.00 | 0.00 | 0.00 | 81 | 1017.2 |
| 20260507073007 | 14 | 342 | 0.0 | 3.2 | 0.00 | 0.00 | 0.00 | 80 | 1017.2 |
| 20260507071504 | 14 | 9 | 0.0 | 3.2 | 0.00 | 0.00 | 0.00 | 80 | 1017.3 |
| 20260507070010 | 14 | 9 | 0.0 | 1.6 | 0.00 | 0.00 | 0.00 | 80 | 1017.4 |
| 20260507064509 | 15 | 5 | 0.0 | 1.6 | 0.00 | 0.00 | 0.00 | 80 | 1017.5 |
| 20260507063008 | 15 | 14 | 0.0 | 0.0 | 0.00 | 0.00 | 0.00 | 78 | 1017.6 |
| 20260507061508 | 15 | 15 | 1.6 | 3.2 | 0.00 | 0.00 | 0.00 | 78 | 1017.6 |
| 20260507060012 | 15 | 290 | 1.6 | 3.2 | 0.00 | 0.00 | 0.00 | 78 | 1017.7 |
| 20260507054510 | 15 | 294 | 0.0 | 3.2 | 0.00 | 0.00 | 0.00 | 77 | 1017.6 |
| 20260507053009 | 15 | 343 | 0.0 | 3.2 | 0.00 | 0.00 | 0.00 | 78 | 1017.6 |
| 20260507051510 | 16 | 41 | 1.6 | 3.2 | 0.00 | 0.00 | 0.00 | 77 | 1017.6 |
| 20260507050010 | 16 | 296 | 1.6 | 3.2 | 0.00 | 0.00 | 0.00 | 76 | 1017.6 |
| 20260507044513 | 16 | 30 | 1.6 | 4.8 | 0.00 | 0.00 | 0.00 | 76 | 1017.5 |
| 20260507043008 | 16 | 282 | 0.0 | 3.2 | 0.00 | 0.00 | 0.00 | 75 | 1017.5 |
| 20260507041531 | 16 | 281 | 0.0 | 3.2 | 0.00 | 0.00 | 0.00 | 75 | 1017.5 |
| 20260507040016 | 16 | 278 | 0.0 | 3.2 | 0.00 | 0.00 | 0.00 | 74 | 1017.3 |
| 20260507034512 | 16 | 277 | 1.6 | 3.2 | 0.00 | 0.00 | 0.00 | 73 | 1017.2 |
| 20260507031505 | 17 | 311 | 3.2 | 6.4 | 0.00 | 0.00 | 0.00 | 69 | 1017.2 |
| 20260507030003 | 17 | 272 | 1.6 | 4.8 | 0.00 | 0.00 | 0.00 | 69 | 1016.9 |
| 20260507024505 | 17 | 280 | 3.2 | 8.0 | 0.00 | 0.00 | 0.00 | 65 | 1016.8 |
| 20260507023003 | 18 | 302 | 1.6 | 8.0 | 0.00 | 0.00 | 0.00 | 65 | 1016.7 |
| 20260507021504 | 18 | 320 | 3.2 | 8.0 | 0.00 | 0.00 | 0.00 | 66 | 1016.6 |
| 20260507020004 | 18 | 281 | 3.2 | 12.9 | 0.00 | 0.00 | 0.00 | 65 | 1016.5 |
| 20260507013015 | 19 | 313 | 3.2 | 11.3 | 0.00 | 0.00 | 0.00 | 61 | 1016.2 |
| 20260507011504 | 20 | 290 | 4.8 | 12.9 | 0.00 | 0.00 | 0.00 | 59 | 1016.2 |
| 20260507010004 | 20 | 283 | 6.4 | 14.5 | 0.00 | 0.00 | 0.00 | 59 | 1016.2 |
| 20260507004503 | 21 | 251 | 4.8 | 11.3 | 0.00 | 0.00 | 0.00 | 57 | 1016.1 |
| 20260507003011 | 21 | 278 | 8.0 | 12.9 | 0.00 | 0.00 | 0.00 | 55 | 1016.1 |
| 20260506234504 | 21 | 270 | 4.8 | 17.7 | 0.00 | 0.00 | 0.00 | 51 | 1015.9 |
| 20260506233005 | 21 | 290 | 6.4 | 16.1 | 0.00 | 0.00 | 0.00 | 51 | 1015.9 |
| 20260506230004 | 21 | 320 | 6.4 | 17.7 | 0.00 | 0.00 | 0.00 | 52 | 1016.0 |
| 20260506223005 | 21 | 311 | 4.8 | 16.1 | 0.00 | 0.00 | 0.00 | 54 | 1016.3 |
| 20260506221711 | 21 | 284 | 4.8 | 17.7 | 0.00 | 0.00 | 0.00 | 55 | 1016.4 |
| 20260506220005 | 21 | 180 | 4.8 | 22.5 | 0.00 | 0.00 | 0.00 | 55 | 1016.5 |
| 20260506214600 | 21 | 232 | 6.4 | 16.1 | 0.00 | 0.00 | 0.00 | 59 | 1016.6 |
| 20260506213005 | 20 | 106 | 3.2 | 16.1 | 0.00 | 0.00 | 0.00 | 60 | 1016.9 |
| 20260506211504 | 20 | 265 | 6.4 | 24.1 | 0.00 | 0.00 | 0.00 | 61 | 1017.0 |
| 20260506210004 | 20 | 182 | 8.0 | 16.1 | 0.00 | 0.00 | 0.00 | 60 | 1017.2 |
| 20260506204507 | 20 | 267 | 3.2 | 16.1 | 0.00 | 0.00 | 0.00 | 62 | 1017.2 |
| 20260506203004 | 20 | 226 | 8.0 | 16.1 | 0.00 | 0.00 | 0.00 | 62 | 1017.4 |
| 20260506201508 | 19 | 219 | 6.4 | 16.1 | 0.00 | 0.00 | 0.00 | 64 | 1017.4 |
| 20260506200008 | 19 | 196 | 11.3 | 20.9 | 0.00 | 0.00 | 0.00 | 65 | 1017.4 |
| 20260506194522 | 18 | 212 | 8.0 | 17.7 | 0.00 | 0.00 | 0.00 | 65 | 1017.6 |
| 20260506193009 | 19 | 115 | 9.7 | 17.7 | 0.00 | 0.00 | 0.00 | 64 | 1017.8 |
| 20260506191513 | 20 | 184 | 1.6 | 14.5 | 0.00 | 0.00 | 0.00 | 53 | 1017.9 |
| 20260506190006 | 20 | 140 | 3.2 | 14.5 | 0.00 | 0.00 | 0.00 | 54 | 1018.0 |
| 20260506184509 | 18 | 169 | 4.8 | 14.5 | 0.00 | 0.00 | 0.00 | 57 | 1018.1 |
| 20260506183007 | 18 | 169 | 8.0 | 11.3 | 0.00 | 0.00 | 0.00 | 59 | 1018.2 |
| 20260506181506 | 18 | 150 | 8.0 | 12.9 | 0.00 | 0.00 | 0.00 | 59 | 1018.2 |
| 20260506180028 | 18 | 182 | 8.0 | 14.5 | 0.00 | 0.00 | 0.00 | 60 | 1018.3 |
| 20260506174506 | 17 | 150 | 4.8 | 8.0 | 0.00 | 0.00 | 0.00 | 62 | 1018.2 |
| 20260506173005 | 17 | 141 | 4.8 | 11.3 | 0.00 | 0.00 | 0.00 | 63 | 1018.5 |
| 20260506171521 | 17 | 174 | 4.8 | 9.7 | 0.00 | 0.00 | 0.00 | 65 | 1018.4 |
| 20260506170007 | 16 | 198 | 1.6 | 8.0 | 0.00 | 0.00 | 0.00 | 66 | 1018.5 |
| 20260506164508 | 16 | 72 | 4.8 | 6.4 | 0.00 | 0.00 | 0.00 | 66 | 1018.5 |
| 20260506163014 | 16 | 166 | 3.2 | 8.0 | 0.00 | 0.00 | 0.00 | 71 | 1018.6 |
| 20260506161514 | 15 | 170 | 3.2 | 9.7 | 0.00 | 0.00 | 0.00 | 72 | 1018.7 |
| 20260506160015 | 15 | 161 | 0.0 | 9.7 | 0.00 | 0.00 | 0.00 | 72 | 1018.6 |
| 20260506154508 | 15 | 100 | 1.6 | 11.3 | 0.00 | 0.00 | 0.00 | 73 | 1018.6 |
| 20260506153009 | 15 | 213 | 3.2 | 11.3 | 0.00 | 0.00 | 0.00 | 73 | 1018.6 |
| 20260506151507 | 15 | 182 | 3.2 | 8.0 | 0.00 | 0.00 | 0.00 | 72 | 1018.7 |
| 20260506150007 | 15 | 193 | 1.6 | 3.2 | 0.00 | 0.00 | 0.00 | 73 | 1018.6 |
| 20260506144509 | 16 | 82 | 1.6 | 3.2 | 0.00 | 0.00 | 0.00 | 70 | 1018.7 |
| 20260506143010 | 15 | 36 | 0.0 | 3.2 | 0.00 | 0.00 | 0.00 | 71 | 1018.5 |
| 20260506141510 | 13 | 27 | 1.6 | 3.2 | 0.00 | 0.00 | 0.00 | 74 | 1018.5 |
| 20260506140208 | 12 | 22 | 1.6 | 1.6 | 0.00 | 0.00 | 0.00 | 78 | 1018.3 |
| 20260506134519 | 11 | 11 | 1.6 | 1.6 | 0.00 | 0.00 | 0.00 | 81 | 1018.4 |
| 20260506133014 | 10 | 352 | 1.6 | 3.2 | 0.00 | 0.00 | 0.00 | 82 | 1018.1 |
| 20260506131525 | 10 | 9 | 1.6 | 1.6 | 0.00 | 0.00 | 0.00 | 81 | 1017.9 |
| 20260506130012 | 11 | 322 | 0.0 | 3.2 | 0.00 | 0.00 | 0.00 | 80 | 1017.9 |
| 20260506124502 | 11 | 335 | 1.6 | 3.2 | 0.00 | 0.00 | 0.00 | 79 | 1017.8 |
| 20260506123004 | 11 | 343 | 1.6 | 3.2 | 0.00 | 0.00 | 0.00 | 78 | 1017.7 |
| 20260506121507 | 11 | 302 | 1.6 | 3.2 | 0.00 | 0.00 | 0.00 | 80 | 1017.6 |
| 20260506120009 | 11 | 333 | 1.6 | 1.6 | 0.00 | 0.00 | 0.00 | 81 | 1017.6 |
| 20260506114506 | 11 | 360 | 1.6 | 3.2 | 0.00 | 0.00 | 0.00 | 82 | 1017.7 |
| 20260506113006 | 11 | 342 | 1.6 | 3.2 | 0.00 | 0.00 | 0.00 | 81 | 1017.7 |
| 20260506111504 | 10 | 9 | 0.0 | 3.2 | 0.00 | 0.00 | 0.00 | 83 | 1017.6 |
| 20260506110009 | 11 | 9 | 1.6 | 3.2 | 0.00 | 0.00 | 0.00 | 81 | 1017.6 |
| 20260506104503 | 11 | 352 | 0.0 | 3.2 | 0.00 | 0.00 | 0.00 | 82 | 1017.5 |
| 20260506103018 | 11 | 325 | 1.6 | 3.2 | 0.00 | 0.00 | 0.00 | 79 | 1017.6 |
| 20260506101505 | 11 | 346 | 3.2 | 3.2 | 0.00 | 0.00 | 0.00 | 79 | 1017.4 |
| 20260506100004 | 11 | 26 | 1.6 | 3.2 | 0.00 | 0.00 | 0.00 | 79 | 1017.4 |
| 20260506094504 | 11 | 319 | 1.6 | 3.2 | 0.00 | 0.00 | 0.00 | 77 | 1017.4 |
| 20260506093005 | 11 | 312 | 1.6 | 4.8 | 0.00 | 0.00 | 0.00 | 76 | 1017.6 |
| 20260506091509 | 11 | 307 | 1.6 | 3.2 | 0.00 | 0.00 | 0.00 | 77 | 1017.6 |
| 20260506090006 | 12 | 296 | 1.6 | 3.2 | 0.00 | 0.00 | 0.00 | 76 | 1017.7 |